Regional Weather Roundup
Issued by NWS Sioux Falls, SD

Home | Current Version | Previous Version | Graphics & Text | Print | Product List | Glossary On
Versions: 1 2 3 4 5 6 7 8 9 10 11 12 13 14 15 16 17 18 19 20 21 22 23 24 25 26 27 28 29 30 31 32 33 34 35 36 37 38 39 40 41 42 43 44 45 46 47 48 49 50
000
ASUS43 KFSD 211710
RWRFSD

WEATHER ROUNDUP FOR SE SOUTH DAKOTA/SW MINNESOTA/NW IOWA
NATIONAL WEATHER SERVICE SIOUX FALLS SD
1200 PM CDT SUN SEP 21 2014

NOTE: "FAIR" INDICATES FEW OR NO CLOUDS BELOW 12,000 FEET WITH NO
SIGNIFICANT WEATHER AND OR OBSTRUCTIONS TO VISIBILITY.


SDZ038>040-050-052>070-211800-
SOUTHEAST SOUTH DAKOTA

CITY           SKY/WX    TMP DP  RH WIND       PRES   REMARKS
CHAMBERLAIN    SUNNY     66  44  44 N7        30.30F
HURON          SUNNY     66  47  50 N12       30.27S
MADISON        FAIR      63  46  55 N13G22    30.25S
MITCHELL       SUNNY     67  47  48 N10       30.28S
SIOUX FALLS    MOSUNNY   67  46  47 N13       30.24R
WINNER         FAIR      67  41  38 NW10      30.33S
YANKTON        SUNNY     64  48  55 NW14      30.27S
$$

MNZ071-072-080-081-089-090-097-098-211800-
SOUTHWEST MINNESOTA

CITY           SKY/WX    TMP DP  RH WIND       PRES   REMARKS
FAIRMONT       CLOUDY    63  45  51 NW17      30.18R
JACKSON        MOSUNNY   63  46  55 N12G20    30.20R
LUVERNE        MOSUNNY   64  45  48 N10G18    30.24R
MARSHALL       MOSUNNY   63  46  55 N16       30.20S
MONTEVIDEO     PTSUNNY   63  52  67 NE13      30.23R
PIPESTONE      MOSUNNY   63  46  55 N15G21    30.23R
REDWOOD FALLS  PTSUNNY   62  51  67 NW13      30.20R
TRACY          MOSUNNY   63  50  61 N15G23    30.22R
WINDOM         MOSUNNY   61  46  59 NW16G22   30.20R
WORTHINGTON    MOSUNNY   63  46  55 NW17      30.23R
$$

IAZ001>003-012>014-020>022-031-032-NEZ013-014-SDZ071-211800-
NORTHWEST IOWA

CITY           SKY/WX    TMP DP  RH WIND       PRES   REMARKS
CHEROKEE       MOSUNNY   64  49  58 N15       30.21S
DENISON        SUNNY     64  50  59 N16       30.19S
ESTHERVILLE    PTSUNNY   63  47  55 N16G24    30.18R
LE MARS        MOSUNNY   66  48  52 NW13G20   30.24R
ORANGE CITY    SUNNY     64  46  52 N13G20    30.23R
SHELDON        MOSUNNY   64  48  55 N14G21    30.22R
SIOUX CITY     SUNNY     67  50  54 NW14G21   30.24R
SPENCER        MOSUNNY   64  48  56 N16G22    30.21R
$$

ABBREVIATIONS USED IN REMARKS
   TC - TEMPERATURE IN CELSIUS
  WCI - WIND CHILL INDEX
   HX - HEAT INDEX
  VSB - VISIBILITY



USA.gov is the U.S. government's official web portal to all federal, state and local government web resources and services.